Regional Weather Roundup
Issued by NWS

Home | Current Version | Previous Version | Text Only | Print | Product List | Glossary On
Versions: 1 2 3 4 5 6 7 8 9 10 11 12 13 14 15 16 17 18 19 20 21 22 23 24 25 26 27 28 29 30 31 32 33 34 35 36 37 38 39 40 41 42 43 44 45 46 47 48 49 50
000
ASUS46 KSEW 110610
RWRWA

WASHINGTON REGIONAL WEATHER ROUNDUP
NATIONAL WEATHER SERVICE SEATTLE WA
1000 PM PST SUN DEC 10 2017

NOTE:"FAIR" INDICATES FEW OR NO CLOUDS BELOW 12,000 FEET WITH NO
SIGNIFICANT WEATHER AND/OR OBSTRUCTIONS TO VISIBILITY.

WAZ507-509-555>559-110700-
SEATTLE, TACOMA, EVERETT, AND VICINITY

CITY           SKY/WX    TMP DP  RH WIND       PRES   REMARKS
EVERETT        CLEAR     37  35  92 CALM      30.33R
6HR MIN TEMP:  37; 6HR MAX TEMP:  42;

BOEING FIELD   CLEAR     34  30  85 CALM      30.34R
6HR MIN TEMP:  34; 6HR MAX TEMP:  47;

RENTON         CLEAR     33  30  88 CALM      30.34R
6HR MIN TEMP:  33; 6HR MAX TEMP:  45;

SEATAC AIRPORT CLEAR     39  32  76 N7        30.32R
6HR MIN TEMP:  39; 6HR MAX TEMP:  46;

JBLM-MCCHORD   CLEAR     28  28 100 CALM      30.33R
6HR MIN TEMP:  26; 6HR MAX TEMP:  43;

PUYALLUP       FAIR      30  30 100 CALM      30.32R FOG
BREMERTON      CLEAR     41  37  86 NE12      30.32R
6HR MIN TEMP:  41; 6HR MAX TEMP:  44;

JBLM-FT LEWIS  CLEAR     28  28 100 SE5       30.33R
6HR MIN TEMP:  28; 6HR MAX TEMP:  41;

TACOMA NARROWS PTCLDY    35  35 100 SE3       30.33R FOG
6HR MIN TEMP:  34; 6HR MAX TEMP:  43;

$$

WAZ001-503-506-510-514-515-110700-
NORTH INTERIOR

CITY           SKY/WX    TMP DP  RH WIND       PRES   REMARKS
BELLINGHAM     PTCLDY    30  30 100 CALM      30.33S FOG
6HR MIN TEMP:  30; 6HR MAX TEMP:  45;

FRIDAY HARBOR  CLEAR     40  38  93 CALM      30.34S
6HR MIN TEMP:  36; 6HR MAX TEMP:  41;

EASTSOUND      PTCLDY    39  39 100 CALM      30.35S FOG
PORT ANGELES   PTCLDY    32  31  96 E7        30.33S
6HR MIN TEMP:  31; 6HR MAX TEMP:  42;

EDIZ HOOK      FAIR      41  37  87 SE3       30.34S
6HR MIN TEMP:  41; 6HR MAX TEMP:  45;

PORT TOWNSEND  FOG       28  28 100 CALM      30.35S VSB 1/4
NAS WHIDBEY    PTCLDY    37  32  82 SE5       30.38R
6HR MIN TEMP:  34; 6HR MAX TEMP:  47;

ARLINGTON      FOG       28  27  96 CALM      30.35R VSB 1/2
6HR MIN TEMP:  28; 6HR MAX TEMP:  43;

BURLINGTON     CLOUDY    32  32 100 CALM      30.34S
$$

WAZ020-022-039-040-504-511-512-110700-
SOUTHWEST INTERIOR

CITY           SKY/WX    TMP DP  RH WIND       PRES   REMARKS
SHELTON        CLEAR     30  29  96 CALM      30.31R
6HR MIN TEMP:  29; 6HR MAX TEMP:  44;

OLYMPIA        CLEAR     28  26  92 S3        30.33R FOG
6HR MIN TEMP:  25; 6HR MAX TEMP:  42;

CHEHALIS       CLOUDY    28  28 100 CALM      30.34R
KELSO          CLEAR     28  26  92 N3        30.36R
6HR MIN TEMP:  28; 6HR MAX TEMP:  45;

VANCOUVER      CLEAR     29  24  82 CALM      30.37R
6HR MIN TEMP:  27; 6HR MAX TEMP:  42;

SCAPPOOSE, OR  CLEAR     28  25  88 SW8       30.37R
6HR MIN TEMP:  27; 6HR MAX TEMP:  41;

PORTLAND, OR   PTCLDY    36  25  64 E15       30.36S
6HR MIN TEMP:  36; 6HR MAX TEMP:  40;

$$

WAZ021-516-517-110700-
WASHINGTON COAST

CITY           SKY/WX    TMP DP  RH WIND       PRES   REMARKS
FORKS          CLEAR     39  36  89 E8        30.24S
6HR MIN TEMP:  33; 6HR MAX TEMP:  50;

HOQUIAM        CLEAR     38  32  79 NE9       30.26F
6HR MIN TEMP:  38; 6HR MAX TEMP:  49;

ASTORIA, OR    CLEAR     42  28  57 E12       30.24S
6HR MIN TEMP:  38; 6HR MAX TEMP:  47;

$$

WAZ019-023-024-040-567>569-110700-
CASCADE MOUNTAINS AND COLUMBIA GORGE

CITY           SKY/WX    TMP DP  RH WIND       PRES   REMARKS
STAMPEDE PASS  FOG       19  17  92 N12G23    30.42R VSB 1/2 WCI   7
6HR MIN TEMP:  19; 6HR MAX TEMP:  21; 6HR PCP: TRACE;

TROUTDALE, OR  CLEAR     38  24  57 E23G33    30.38R
6HR MIN TEMP:  37; 6HR MAX TEMP:  39;

HOOD RIVER, OR CLOUDY    32  27  80 E6        30.67S
THE DALLES, OR CLOUDY    34  25  69 E12       30.70S WCI  25
6HR MIN TEMP:  34; 6HR MAX TEMP:  34;

$$

WAZ026-027-041>044-520-521-110700-
EAST SLOPES

CITY           SKY/WX    TMP DP  RH WIND       PRES   REMARKS
OMAK           CLOUDY    30  28  92 CALM      30.67S
6HR MIN TEMP:  30; 6HR MAX TEMP:  31;

WENATCHEE      CLOUDY    30  24  78 W5        30.67R
6HR MIN TEMP:  30; 6HR MAX TEMP:  31;

ELLENSBURG       N/A    N/A N/A N/A MISG      30.63R
YAKIMA         CLOUDY    33  24  69 CALM      30.68R
6HR MIN TEMP:  32; 6HR MAX TEMP:  33;

SUNNYSIDE ARPT CLOUDY    29  26  86 CALM      30.69S
6HR MIN TEMP:  29; 6HR MAX TEMP:  30;

YAKIMA TC      CLOUDY    29  24  82 CALM      30.64R
6HR MIN TEMP:  29; 6HR MAX TEMP:  29;

$$

WAZ028-034-035-110700-
COLUMBIA BASIN

CITY           SKY/WX    TMP DP  RH WIND       PRES   REMARKS
EPHRATA        CLOUDY    31  24  75 CALM      30.65S
6HR MIN TEMP:  30; 6HR MAX TEMP:  31;

MOSES LAKE     CLOUDY    30  28  92 CALM      30.67R
6HR MIN TEMP:  30; 6HR MAX TEMP:  31;

PASCO          CLOUDY    32  26  78 CALM      30.72R
6HR MIN TEMP:  31; 6HR MAX TEMP:  32;

RICHLAND ARPT  CLOUDY    32  28  86 MISG      30.72R
6HR MIN TEMP:  32; 6HR MAX TEMP:  33;

HERMISTON, OR  CLOUDY    30  27  88 W3        30.68S
6HR MIN TEMP:  30; 6HR MAX TEMP:  31;

$$

WAZ036>038-110700-
NORTHEAST WASHINGTON

CITY           SKY/WX    TMP DP  RH WIND       PRES   REMARKS
SPOKANE GEIGER CLOUDY    25  24  96 N6        30.59R
6HR MIN TEMP:  25; 6HR MAX TEMP:  28;

SPOKANE FELTS  CLOUDY    29  24  82 N3        30.62R
6HR MIN TEMP:  29; 6HR MAX TEMP:  30;

FAIRCHILD AFB  CLOUDY    24  24 100 N7        30.58R
6HR MIN TEMP:  24; 6HR MAX TEMP:  27;

COEURDALENE,ID CLOUDY    27  24  89 NE7       30.59S
6HR MIN TEMP:  27; 6HR MAX TEMP:  28;

DEER PARK      CLEAR     20  19  96 NW7       30.61R
6HR MIN TEMP:  20; 6HR MAX TEMP:  27;

$$

WAZ029>033-110700-
SOUTHEAST WASHINGTON

CITY           SKY/WX    TMP DP  RH WIND       PRES   REMARKS
PULLMAN        FOG       25  23  92 CALM      30.58R VSB 1/4
6HR MIN TEMP:  25; 6HR MAX TEMP:  27;

LEWISTON, ID   CLEAR     25  23  92 SE3       30.62S
6HR MIN TEMP:  25; 6HR MAX TEMP:  29;

WALLA WALLA    CLOUDY    30  24  78 E5        30.65R
6HR MIN TEMP:  29; 6HR MAX TEMP:  30;

PENDLETON, OR  CLOUDY    27  25  92 NW6       30.62S
6HR MIN TEMP:  27; 6HR MAX TEMP:  28;

$$



USA.gov is the U.S. government's official web portal to all federal, state and local government web resources and services.